#timestamp,LO_Frequency,Hit,StdDev 
1643331615.4,286047000.2,N
1643331635.2,286047000.9,N
1643331655.1,286046998.6,N
1643331656.0,286046998.6,N
1643331675.8,286046998.6,N
1643331695.7,286046998.8,N
1643331715.5,286046998.9,N
1643331735.3,286046999.3,N
1643331755.2,286046996.9,N
1643331775.9,286046996.6,N
1643331795.7,286046996.9,N
1643331815.6,286046997.0,N
1643331835.4,286046996.8,N
1643331855.3,286046996.8,N
1643331875.1,286046999.5,N
1643331876.0,286046999.5,N
1643331895.8,286046999.5,N
1643331915.7,286046998.4,N
1643331935.5,286046998.2,N
1643331955.3,286046999.1,N
1643331975.2,286046999.1,N
1643331995.0,286046998.9,N
1643331995.9,286046998.9,N
1643332015.8,286046998.7,N
1643332035.6,286046999.3,N
1643332055.4,286046998.8,N
1643332075.3,286046998.6,N
1643332095.1,286047004.0,N
1643332115.8,286047002.4,N
1643332135.7,286047001.5,N
1643332155.5,286047001.7,N
1643332175.4,286046999.9,N
1643332195.2,286047000.3,N
1643332215.0,286047000.0,N
1643332215.9,286047000.0,N
1643332235.8,286047000.2,N
1643332255.6,286046998.9,N
1643332275.4,286046998.6,N
1643332295.3,286046998.1,N
1643332315.1,286047000.9,N
1643332335.9,286047000.1,N
1643332355.7,286047000.1,N
1643332375.5,286047000.3,N
1643332395.4,286047001.6,N
1643332415.2,286046999.7,N
1643332435.0,286047001.2,N
1643332435.9,286047001.2,N
1643332455.8,286047000.9,N
1643332475.6,286047000.7,N
1643332495.5,286046998.8,N
1643332515.3,286046998.6,N
1643332535.3,286047000.8,N
1643332555.1,286046998.5,N
1643332556.0,286046998.5,N
1643332575.8,286047000.3,N
1643332595.7,286046999.9,N
1643332615.5,286047000.9,N
1643332635.3,286047001.1,N
1643332655.2,286047001.1,N
1643332675.0,286046998.2,N
1643332675.9,286046998.2,N
1643332695.8,286047000.8,N
1643332715.6,286047001.8,N
1643332735.5,286047003.8,Y
1643332755.3,286047001.6,P
1643332775.1,286047003.9,P
1643332795.9,286047002.5,N
1643332815.7,286047000.5,N
1643332835.5,286047000.4,N
1643332855.4,286046999.9,N
1643332875.2,286046999.7,N
1643332895.1,286047002.4,N
1643332896.0,286047002.4,N
1643332915.8,286047001.4,N
1643332935.7,286047004.3,Y
1643332955.5,286047004.2,P
1643332975.3,286047005.7,P
1643332995.2,286047003.0,N
1643333015.0,286047001.8,N
1643333015.9,286047001.8,N
1643333035.8,286047002.1,N
1643333055.6,286047001.6,N
1643333075.4,286047002.7,N
1643333095.3,286046999.7,N
1643333115.1,286047000.0,N
1643333135.8,286047002.2,N
1643333155.7,286046999.9,N
1643333175.5,286046999.8,N
1643333195.4,286046999.9,N
1643333215.2,286047000.8,N
1643333235.0,286047000.4,N
1643333235.9,286047000.4,N
1643333255.8,286047000.6,N
1643333275.6,286047002.7,N
1643333295.5,286046999.7,N
1643333315.3,286046998.1,N
1643333335.1,286046999.7,N
1643333355.9,286047002.4,N
1643333375.7,286047002.7,N
1643333395.5,286047002.3,N
1643333415.4,286047002.3,N
1643333435.2,286047002.2,N
1643333455.1,286047002.3,N
1643333456.0,286047002.3,N
1643333475.8,286047004.4,N
1643333495.7,286047001.5,N
1643333515.5,286047001.5,N
1643333535.3,286047002.6,N
1643333555.2,286047000.6,N
1643333575.9,286047001.0,N
1643333595.8,286047000.7,N
1643333615.6,286047000.3,N
1643333635.5,286046998.3,N
1643333655.3,286046999.3,N
1643333675.1,286046999.5,N
1643333695.9,286046996.6,N
1643333715.7,286046997.4,N
1643333735.6,286046998.3,N
1643333755.4,286047000.7,N
1643333775.2,286047000.7,N
1643333795.1,286047000.7,N
1643333796.0,286047000.7,N
1643333815.8,286047001.0,N
1643333835.7,286047001.1,N
1643333855.5,286046998.5,N
1643333875.3,286047000.6,N
1643333895.2,286047000.5,N
1643333915.0,286047000.9,N
1643333915.9,286047000.9,N
1643333935.7,286047000.1,N
1643333955.6,286047000.9,N
1643333975.4,286047000.9,N
1643333995.3,286046998.5,N
1643334015.1,286047000.2,N
1643334016.0,286047000.2,N
1643334035.8,286047002.7,N
1643334055.7,286047001.1,N
1643334075.5,286047000.4,N
1643334095.3,286047000.2,N
1643334115.2,286047002.1,N
1643334135.0,286047002.0,N
1643334166.0,286047002.0,E
1643334175.9,286047000.6,N
1643334195.7,286047001.1,P
1643334215.5,286047000.3,N
1643334235.4,286047002.0,Y
1643334255.2,286047002.4,P
1643334275.1,286047001.9,N
1643334276.0,286047001.9,N
1643334295.8,286046999.9,N
1643334315.6,286046998.1,N
1643334335.5,286046999.3,N
1643334355.3,286046999.0,N
1643334375.2,286046999.2,N
1643334395.9,286046996.9,N
1643334415.7,286047000.2,N
1643334435.6,286047010.2,Y
1643334455.4,286047006.7,P
1643334475.2,286047004.9,N
1643334495.1,286047006.6,N
1643334496.0,286047006.6,N
1643334515.8,286047007.4,N
1643334535.7,286047003.4,N
1643334555.5,286047003.2,N
1643334575.3,286046999.8,N
1643334595.2,286047000.5,N
1643334615.0,286047000.9,N
1643334615.9,286047000.9,N
1643334635.8,286046998.5,N
1643334655.6,286046998.7,N
1643334675.4,286046998.7,N
1643334695.3,286046998.5,N
1643334715.1,286046998.6,N
1643334716.0,286046998.6,N
1643334735.8,286046998.3,N
1643334755.7,286046996.7,N
1643334775.5,286047001.0,N
1643334795.4,286047000.6,N
1643334815.2,286046999.7,N
1643334835.0,286047000.6,N
1643334835.9,286047000.6,N
1643334855.8,286047000.9,N
1643334875.6,286046998.5,N
1643334895.4,286046999.4,N
1643334915.3,286046999.3,N
1643334935.1,286046997.2,N
1643334955.9,286046994.9,N
1643334975.7,286046997.6,N
1643334995.5,286046997.7,N
1643335015.4,286046999.4,N
1643335035.2,286046998.2,N
1643335055.0,286047000.6,N
1643335056.0,286047000.6,N
1643335075.8,286047002.1,N
1643335095.6,286047004.3,N
1643335115.5,286047002.4,N
1643335135.3,286047002.2,N
1643335155.1,286047004.4,N
1643335175.9,286047001.7,N
1643335195.7,286047001.5,N
